Weather in Sri Jayawardenapura Kotte

Sri Lanka     6°52′42″N   79°55′20″E
В апреле 2022 года жителям России запретили посещать сайт meteo.paraplan.net по решению Генеральной прокуратуры. Аудитория сайта уменьшилась в 10 раз. Владельцы сайта не видят смысла в поддержке погодного сервера в таких условиях. Сайт будет закрыт в октябре.
temp.,
°C
wind,
m/s
gust,
m/s
humid.,
%
clouds,
%
prec.,
mm/h
press.,
hPa
HPBL,
m
6 october, thu
thu623:30+24ssw2493100 6.6 1010155
02:30+24ssw2593100 5.1 1008189
05:30+24s2494100 8.3 1009151
08:30+26sw4783100 1.8 1010781
11:30+28wsw477188 3.1 10091159
14:30+28wsw467367 0.9 10071066
17:30+26sw3685100 1.5 1008417
20:30+24s1392100 0.4 101082
7 october, fri
fri723:30+24sse2394100 0.9 1010111
02:30+23sse139545 1.0 100785
05:30+23sse229525 2.0 100875
08:30+26sw358026 1.1 1011680
11:30+29wsw466816 2.5 10091203
14:30+28wsw567262 1.5 10061109
17:30+25wsw368782 3.6 1008387
20:30+24sw2393100 2.8 1011112
8 october, sat
sat823:30+23ssw139598 5.0 1010120
02:30+24sw2592100 1.4 1008193
05:30+23ssw139444 3.9 1009111
08:30+27wsw368169 1.9 1010847
11:30+28w457269 3.3 10091249
14:30+29w4568100 0.9 10071274
17:30+26wsw2582100 1.1 1008315
20:30+24wsw239010 0.3 1010102
9 october, sun
sun923:30+24ssw11925 1.1 101034
02:30+23ssw129394 0.2 100862
05:30+23s129439 0.6 100961
08:30+27wsw347822 0.8 1011775
11:30+30wsw45645 1.4 10101343
14:30+29wsw45647 0.1 10081300
17:30+26sw24819 0.2 1008351
20:30+25s249266 0.1 1011139
10 october, mon
mon1023:30+24s229530 1.3 101175
02:30+23s249629 0.8 1009141
05:30+23sse239655 0.9 1010109
08:30+27ssw248098 0.3 1011714
11:30+30wsw456396 0.6 10101354
14:30+29wsw446444 0.1 10081242
17:30+27sw35807 0.1 1009455
20:30+25s24905 0.0 1011132